FFT2207 KMCI-KDEN

Flight info

Callsign FFT2207
Flight time N/A
Altitude 30000
Route WLDCT6 SLN J24 OATHE CLASH5
Aircraft A320/M-SDE3FGHIRWY/LB1

Departure

Time N/A
Airport Kansas City International Airport (KMCI)

Arrival

Time 2026-05-05 03:17
Airport Denver International Airport (KDEN)
Time Latitude Longitude Altitude Speed Heading
2026-05-05 02:44 38.84888 -101.93090 29708 ft 383 kts 271°
2026-05-05 02:44 38.84872 -101.96546 29707 ft 383 kts 271°
2026-05-05 02:45 38.84844 -102.03342 29708 ft 383 kts 271°
2026-05-05 02:45 38.84825 -102.10161 29698 ft 381 kts 271°
2026-05-05 02:46 38.84814 -102.16964 29704 ft 381 kts 272°
2026-05-05 02:46 38.84806 -102.23764 29709 ft 381 kts 272°
2026-05-05 02:47 38.84804 -102.30563 29709 ft 381 kts 272°
2026-05-05 02:47 38.84806 -102.37362 29706 ft 380 kts 272°
2026-05-05 02:47 38.85131 -102.40672 29700 ft 371 kts 285°
2026-05-05 02:48 38.85954 -102.43800 29691 ft 369 kts 288°
2026-05-05 02:48 38.87648 -102.50016 29695 ft 368 kts 288°
2026-05-05 02:49 38.89324 -102.56182 29698 ft 368 kts 288°
2026-05-05 02:49 38.91016 -102.62455 29701 ft 377 kts 288°
2026-05-05 02:50 38.92744 -102.68857 29703 ft 380 kts 288°
2026-05-05 02:50 38.94477 -102.75275 29696 ft 380 kts 288°
2026-05-05 02:51 38.96201 -102.81680 29690 ft 379 kts 287°
2026-05-05 02:51 38.97909 -102.88041 29694 ft 379 kts 287°
2026-05-05 02:52 38.99438 -102.94516 29702 ft 378 kts 284°
2026-05-05 02:52 39.00776 -103.01059 29695 ft 378 kts 283°
2026-05-05 02:53 39.02114 -103.07606 29704 ft 378 kts 284°
2026-05-05 02:53 39.03491 -103.14152 29696 ft 378 kts 284°
2026-05-05 02:54 39.05329 -103.20475 29747 ft 381 kts 297°
2026-05-05 02:54 39.08098 -103.26263 29709 ft 383 kts 297°
2026-05-05 02:55 39.10884 -103.32144 29288 ft 388 kts 297°
2026-05-05 02:55 39.12287 -103.35121 28520 ft 385 kts 297°
2026-05-05 02:55 39.13669 -103.38044 27941 ft 380 kts 298°
2026-05-05 02:55 39.15035 -103.40933 27328 ft 375 kts 298°
2026-05-05 02:56 39.16388 -103.43795 26738 ft 371 kts 298°
2026-05-05 02:56 39.17721 -103.46624 26144 ft 368 kts 298°
2026-05-05 02:56 39.19040 -103.49436 25590 ft 366 kts 298°
2026-05-05 02:56 39.20335 -103.52198 25022 ft 364 kts 298°
2026-05-05 02:57 39.21646 -103.54989 24363 ft 363 kts 298°
2026-05-05 02:57 39.22956 -103.57776 23725 ft 363 kts 298°
2026-05-05 02:57 39.24266 -103.60564 23021 ft 364 kts 299°
2026-05-05 02:57 39.25572 -103.63347 22400 ft 358 kts 299°
2026-05-05 02:58 39.26858 -103.66090 21953 ft 356 kts 298°
2026-05-05 02:58 39.28142 -103.68836 21736 ft 358 kts 298°
2026-05-05 02:58 39.29449 -103.71566 21482 ft 357 kts 300°
2026-05-05 02:58 39.30822 -103.74237 20949 ft 355 kts 301°
2026-05-05 02:59 39.32227 -103.76851 20393 ft 352 kts 302°
2026-05-05 02:59 39.33631 -103.79428 19831 ft 350 kts 302°
2026-05-05 02:59 39.35024 -103.81996 19273 ft 347 kts 302°
2026-05-05 02:59 39.36398 -103.84549 18721 ft 345 kts 301°
2026-05-05 03:00 39.37751 -103.87091 18110 ft 342 kts 301°
2026-05-05 03:00 39.39097 -103.89636 17710 ft 343 kts 301°
2026-05-05 03:00 39.40427 -103.92162 17114 ft 333 kts 301°
2026-05-05 03:00 39.41689 -103.94554 16835 ft 314 kts 301°
2026-05-05 03:01 39.42878 -103.96861 16569 ft 305 kts 297°
2026-05-05 03:01 39.43710 -103.99353 16313 ft 300 kts 284°
2026-05-05 03:01 39.44048 -104.02005 16066 ft 300 kts 271°
2026-05-05 03:01 39.43986 -104.04691 15816 ft 298 kts 266°
2026-05-05 03:02 39.43890 -104.07370 15584 ft 299 kts 266°
2026-05-05 03:02 39.43800 -104.10021 15327 ft 299 kts 266°
2026-05-05 03:02 39.43711 -104.12706 15086 ft 299 kts 266°
2026-05-05 03:02 39.43619 -104.15389 14748 ft 298 kts 266°
2026-05-05 03:03 39.43524 -104.18065 14383 ft 298 kts 266°
2026-05-05 03:03 39.43427 -104.20738 14014 ft 298 kts 266°
2026-05-05 03:03 39.43330 -104.23414 13670 ft 297 kts 267°
2026-05-05 03:03 39.43237 -104.25996 13558 ft 275 kts 267°
2026-05-05 03:04 39.43150 -104.28401 13140 ft 263 kts 267°
2026-05-05 03:04 39.43065 -104.30742 12650 ft 256 kts 267°
2026-05-05 03:04 39.42984 -104.33014 12328 ft 253 kts 268°
2026-05-05 03:04 39.42901 -104.35296 12009 ft 254 kts 268°
2026-05-05 03:05 39.42816 -104.37585 11718 ft 255 kts 268°
2026-05-05 03:05 39.42731 -104.39876 11398 ft 254 kts 267°
2026-05-05 03:05 39.42646 -104.42169 11086 ft 256 kts 267°
2026-05-05 03:05 39.42562 -104.44441 10803 ft 256 kts 268°
2026-05-05 03:06 39.42482 -104.46749 10580 ft 258 kts 268°
2026-05-05 03:06 39.42402 -104.49075 10350 ft 260 kts 268°
2026-05-05 03:06 39.42323 -104.51412 10123 ft 261 kts 268°
2026-05-05 03:06 39.42249 -104.53766 9882 ft 261 kts 268°
2026-05-05 03:07 39.42184 -104.56103 9630 ft 258 kts 269°
2026-05-05 03:07 39.42123 -104.58400 9385 ft 254 kts 269°
2026-05-05 03:07 39.42063 -104.60670 9155 ft 250 kts 268°
2026-05-05 03:07 39.42044 -104.62904 8937 ft 245 kts 278°
2026-05-05 03:08 39.42618 -104.64895 8876 ft 234 kts 307°
2026-05-05 03:08 39.43824 -104.66248 8826 ft 230 kts 336°
2026-05-05 03:08 39.45363 -104.66695 8783 ft 227 kts
2026-05-05 03:08 39.46939 -104.66601 8739 ft 226 kts
2026-05-05 03:09 39.48498 -104.66498 8691 ft 227 kts
2026-05-05 03:09 39.50043 -104.66420 8661 ft 214 kts
2026-05-05 03:09 39.51502 -104.66394 8621 ft 207 kts
2026-05-05 03:09 39.52933 -104.66392 8571 ft 204 kts
2026-05-05 03:10 39.54345 -104.66390 8531 ft 202 kts
2026-05-05 03:10 39.55754 -104.66377 8486 ft 202 kts
2026-05-05 03:10 39.57155 -104.66361 8439 ft 199 kts
2026-05-05 03:10 39.58486 -104.66346 8370 ft 185 kts
2026-05-05 03:11 39.59755 -104.66331 8348 ft 180 kts
2026-05-05 03:11 39.60999 -104.66316 8313 ft 177 kts
2026-05-05 03:11 39.62238 -104.66301 8276 ft 179 kts
2026-05-05 03:11 39.63463 -104.66286 8240 ft 166 kts
2026-05-05 03:12 39.64541 -104.66274 8212 ft 151 kts
2026-05-05 03:12 39.65575 -104.66262 8182 ft 147 kts
2026-05-05 03:12 39.66589 -104.66249 8142 ft 146 kts
2026-05-05 03:12 39.67591 -104.66237 8113 ft 143 kts
2026-05-05 03:13 39.68590 -104.66225 8079 ft 144 kts
2026-05-05 03:13 39.69591 -104.66213 8011 ft 143 kts
2026-05-05 03:13 39.70586 -104.66201 7862 ft 142 kts
2026-05-05 03:13 39.71579 -104.66189 7697 ft 142 kts
2026-05-05 03:14 39.72573 -104.66178 7510 ft 142 kts
2026-05-05 03:14 39.73561 -104.66166 7335 ft 142 kts
2026-05-05 03:14 39.74548 -104.66154 7146 ft 142 kts
2026-05-05 03:14 39.75538 -104.66142 6963 ft 142 kts
2026-05-05 03:15 39.76516 -104.66131 6782 ft 142 kts
2026-05-05 03:15 39.77479 -104.66119 6622 ft 141 kts
2026-05-05 03:15 39.78451 -104.66107 6434 ft 141 kts
2026-05-05 03:15 39.79421 -104.66096 6230 ft 138 kts
2026-05-05 03:16 39.80397 -104.66084 6017 ft 142 kts
2026-05-05 03:16 39.81375 -104.66068 5759 ft 141 kts
2026-05-05 03:16 39.82348 -104.66057 5574 ft 138 kts
2026-05-05 03:16 39.83297 -104.66052 5444 ft 129 kts
2026-05-05 03:17 39.84075 -104.66041 5412 ft 92 kts
2026-05-05 03:17 39.84628 -104.66034 5409 ft 70 kts
2026-05-05 03:17 39.85064 -104.66029 5402 ft 57 kts
2026-05-05 03:17 39.85425 -104.66024 5391 ft 46 kts
2026-05-05 03:18 39.85700 -104.66015 5393 ft 36 kts
2026-05-05 03:18 39.85909 -104.66016 5389 ft 27 kts 357°
2026-05-05 03:18 39.86012 -104.66086 5388 ft 15 kts 281°
2026-05-05 03:18 39.86017 -104.66228 5387 ft 17 kts 271°
2026-05-05 03:19 39.86055 -104.66613 5376 ft 25 kts 281°
2026-05-05 03:19 39.86061 -104.66847 5379 ft 27 kts 270°
2026-05-05 03:19 39.86063 -104.67102 5377 ft 29 kts 270°
2026-05-05 03:20 39.86066 -104.67368 5377 ft 28 kts 270°
2026-05-05 03:20 39.86067 -104.67615 5379 ft 23 kts 270°
2026-05-05 03:20 39.86066 -104.67795 5379 ft 12 kts 270°
2026-05-05 03:20 39.86045 -104.67889 5374 ft 8 kts 215°
2026-05-05 03:21 39.85997 -104.67902 5379 ft 6 kts 181°
2026-05-05 03:21 39.85959 -104.67902 5378 ft 6 kts 180°
2026-05-05 03:21 39.85934 -104.67902 5378 ft 1 kts 180°
2026-05-05 03:21 39.85933 -104.67902 5378 ft 0 kts 180°